Simultaneous Nadir Overpasses (SNOs) Predictions

Prediction of SNOs between NOAA-20 and NOAA-19 Satellite Orbit:

Table of predicted SNOs for the next 14.0 days since TLE Epoch: 5/1/2021
Index Date (NOAA-20) Time (NOAA-20) Lat,Lon (NOAA-20) SZA (NOAA-20 ) Date (NOAA-19) Time (NOAA-19) Lat,Lon (NOAA-19) SZA (NOAA-19 ) Distance(km) Time Diff (sec)
1 05/02/2021 07:32:34 78.33, 40.48 64.02 05/02/2021 07:31:21 78.32, 39.67 64.12 18.34 73
2 05/02/2021 08:23:20 -78.40,-152.58 115.90 05/02/2021 08:22:18 -78.40,-152.54 115.87 0.95 62
3 05/02/2021 09:14:06 78.41, 14.64 64.12 05/02/2021 09:13:19 78.40, 14.72 64.12 1.99 47
4 05/02/2021 10:04:50 -78.40,-177.97 115.91 05/02/2021 10:04:18 -78.41,-177.96 115.89 1.72 32
5 05/02/2021 10:55:36 78.41, -10.75 64.10 05/02/2021 10:55:19 78.42, -10.69 64.11 1.44 17
6 05/02/2021 11:46:20 -78.40, 156.64 115.93 05/02/2021 11:46:18 -78.43, 156.63 115.91 2.85 2
7 05/02/2021 12:37:06 78.42, -36.14 64.08 05/02/2021 12:37:19 78.43, -36.09 64.09 1.87 13
8 05/02/2021 13:27:50 -78.40, 131.25 115.95 05/02/2021 13:28:18 -78.44, 131.22 115.93 4.06 28
9 05/02/2021 14:18:36 78.42, -61.53 64.07 05/02/2021 14:19:19 78.44, -61.50 64.07 2.85 43
10 05/02/2021 15:09:21 -78.44, 105.63 115.91 05/02/2021 15:10:19 -78.42, 105.57 115.95 3.39 58
11 05/02/2021 16:00:06 78.42, -86.92 64.05 05/02/2021 16:01:19 78.46, -86.91 64.05 4.00 73



Historial Predications of SNOs between NOAA-20 and NOAA-19
